Find Starlink 5278

NORAD ID: 54164 Int'l Des: 2022-141 Owner: SPXS Country: US Constellation: starlink operational
LEOCIRCULAR

当前视图

正在加载3D地球...

About Starlink 5278

Starlink 5278 (NORAD 54164) is a starlink constellation satellite (v1.5) launched Oct 28, 2022 by SPXS of US. It operates in LEO, CIRCULAR orbit with a mass of 305.00 kg.

即将过境

Passes for default location (London). Set your location on the main map for personalized predictions.

高度历史

Loading altitude history...

两行轨道根数

1 54164U 22141H 26266.18864357 .00002227 00000-0 77018-4 0 9994
2 54164 53.1603 181.3756 0001467 93.2471 266.8699 15.34409951215897
Epoch: Sep 23, 2026 • Age: 8 hours

当前状态

高度 465.2 km
远地点 / 近地点 N/A
速度 7.63 km/s
星下点 -8.06°S, 13.06°W
发射日期 Oct 28, 2022
运行时间 3.9 years
类型 internet

技术详情

分类 Payload
质量 305.00 kg
干质量 290.00 kg
长度 0.20 m
跨度 9.00 m
形状 ? Box + pan
制造商 SPXS
平台类型 Starlink
阶段状态 In Orbit
所有者/国家 SPXS/US

Most Searched